Weather History for Rome, GA

Change the Weather History Date:

Thursday, December 12, 2013

  Actual Average Record
Temperature  
Mean Temperature 36 °F 43 °F  
Max Temperature 45 °F 53 °F 68 °F (2007)
Min Temperature 26 °F 33 °F 25 °F (2014)
Degree Days  
Heating Degree Days 29 22  
Month to date heating degree days 206 249  
Since 1 July heating degree days 841 856  
Moisture  
Dew Point 21 °F    
Average Humidity 60    
Maximum Humidity 92    
Minimum Humidity 27    
Precipitation  
Precipitation 0.00 in 0.17 in 0.27 in (2006)
Month to date precipitation 4.15 2.16  
Year to date precipitation 49.70  
Snow  
Snow 0.00 in - - ()
Month to date snowfall 0.0  
Since 1 July snowfall 0.0  
Snow Depth 0.00 in    
Sea Level Pressure  
Sea Level Pressure 30.45 in    
Wind  
Wind Speed 5 mph (North)    
Max Wind Speed 15 mph    
Max Gust Speed 20 mph    
Visibility 10 miles    
Events      
T = Trace of Precipitation, MM = Missing Value Source: NWS Daily Summary

Daily Weather History Graph

Daily Weather History Graph

Search for Another Location

Airport:

Trip Planner

Search our weather history database for the weather conditions in past years. The results will help you decide how hot, cold, wet, or windy it might be!

Date:

Astronomy

Dec. 12, 2013 Rise Set
Actual Time 7:37 AM EST 5:31 PM EST
Civil Twilight 7:09 AM EST 5:59 PM EST
Nautical Twilight 6:38 AM EST 6:30 PM EST
Astronomical Twilight 6:07 AM EST 7:01 PM EST
Moon 2:30 PM EST (12/12) 3:08 AM EST (12/12)
Length of Visible Light 10h 49m
Length of Day
9h 53m
Waxing Gibbous, 80% of the Moon is Illuminated
Dec 12
Waxing Gibbous
Dec 17
Full
Dec 25
Last Quarter
Jan 1
New
Jan 7
First Quarter

Hourly Weather History & Observations

Time (EST) Temp. Windchill Dew Point Humidity Pressure Visibility Wind Dir Wind Speed Gust Speed Precip Events Conditions
12:53 AM 30.9 °F - 27.0 °F 85% 30.41 in 10.0 mi Calm Calm - N/A   Clear
1:53 AM 35.1 °F 28.6 °F 25.0 °F 67% 30.41 in 10.0 mi North 8.1 mph - N/A   Clear
2:53 AM 35.1 °F 28.6 °F 26.1 °F 70% 30.41 in 10.0 mi North 8.1 mph - N/A   Clear
3:53 AM 33.1 °F 30.0 °F 25.0 °F 72% 30.42 in 10.0 mi North 3.5 mph - N/A   Clear
4:53 AM 33.1 °F 28.7 °F 25.0 °F 72% 30.43 in 10.0 mi NNW 4.6 mph - N/A   Clear
5:53 AM 30.9 °F 27.5 °F 25.0 °F 79% 30.47 in 10.0 mi Variable 3.5 mph - N/A   Clear
6:53 AM 30.0 °F 23.2 °F 24.1 °F 79% 30.47 in 10.0 mi NNW 6.9 mph - N/A   Clear
7:53 AM 28.0 °F 20.8 °F 23.0 °F 81% 30.49 in 10.0 mi NNE 6.9 mph - N/A   Clear
8:53 AM 30.9 °F 21.7 °F 23.0 °F 72% 30.50 in 10.0 mi North 11.5 mph - N/A   Clear
9:53 AM 33.1 °F 24.4 °F 21.0 °F 61% 30.53 in 10.0 mi North 11.5 mph - N/A   Clear
10:53 AM 35.1 °F 27.9 °F 21.0 °F 57% 30.53 in 10.0 mi NNE 9.2 mph - N/A   Clear
11:53 AM 37.9 °F 31.5 °F 19.0 °F 47% 30.52 in 10.0 mi North 9.2 mph - N/A   Clear
12:53 PM 39.9 °F 36.7 °F 17.1 °F 40% 30.50 in 10.0 mi Variable 4.6 mph - N/A   Clear
1:53 PM 43.0 °F 36.4 °F 17.1 °F 35% 30.47 in 10.0 mi North 12.7 mph 16.1 mph N/A   Clear
2:53 PM 44.1 °F 39.5 °F 16.0 °F 32% 30.44 in 10.0 mi NNW 8.1 mph - N/A   Clear
3:53 PM 44.1 °F 39.0 °F 12.9 °F 28% 30.43 in 10.0 mi North 9.2 mph - N/A   Clear
4:53 PM 43.0 °F 39.5 °F 14.0 °F 31% 30.43 in 10.0 mi North 5.8 mph - N/A   Clear
5:53 PM 37.9 °F 35.5 °F 16.0 °F 41% 30.42 in 10.0 mi NNW 3.5 mph - N/A   Clear
6:53 PM 35.1 °F - 17.1 °F 48% 30.43 in 10.0 mi Calm Calm - N/A   Clear
7:53 PM 32.0 °F - 19.0 °F 59% 30.43 in 10.0 mi Calm Calm - N/A   Clear
8:53 PM 30.0 °F - 19.0 °F 64% 30.42 in 10.0 mi Calm Calm - N/A   Clear
9:53 PM 26.1 °F - 21.0 °F 81% 30.43 in 10.0 mi Calm Calm - N/A   Clear
10:53 PM 27.0 °F - 21.0 °F 78% 30.44 in 9.0 mi Calm Calm - N/A   Clear
11:53 PM 26.1 °F - 21.0 °F 81% 30.44 in 10.0 mi Calm Calm - N/A   Clear